Overview Statistics Trail Chart Weather Telemetry Raw packets
 

This is the latest recevied weather packets stored in our database for station/object KI5NXU. If no packets are shown the sender has not sent any weather packets the latest 10 day(s).

<< 76 77 78 79 80 81 82 >>
Time Temp. Humidity Pressure Rain* Wind** Luminosity Snow
1787827457 25° C 74% 1015 hPa 0 mm - 0 W/m² -
1787827156 25.56° C 73% 1015.1 hPa 0 mm - 0 W/m² -
1787826855 25.56° C 73% 1014.7 hPa 0 mm - 0 W/m² -
1787826551 25° C 73% 1014.9 hPa 0 mm - 0 W/m² -
1787826247 25° C 74% 1015 hPa 0 mm - 0 W/m² -
1787825942 25° C 74% 1014.9 hPa 0 mm - 0 W/m² -
1787825636 25° C 73% 1014.9 hPa 0 mm - 0 W/m² -
1787825336 25° C 73% 1014.8 hPa 0 mm - 0 W/m² -
1787825034 25.56° C 72% 1015 hPa 0 mm - 0 W/m² -
1787824732 25.56° C 72% 1014.8 hPa 0 mm - 0 W/m² -
1787824427 25.56° C 72% 1014.9 hPa 0 mm - 0 W/m² -
1787824127 26.11° C 71% 1014.7 hPa 0 mm - 0 W/m² -
1787823823 26.11° C 71% 1014.7 hPa 0 mm - 0 W/m² -
1787823522 26.11° C 70% 1014.8 hPa 0 mm - 0 W/m² -
1787823218 26.11° C 71% 1014.8 hPa 0 mm - 0 W/m² -
1787822916 26.11° C 70% 1014.9 hPa 0 mm - 0 W/m² -
1787822615 26.67° C 69% 1015 hPa 0 mm - 0 W/m² -
1787822311 26.67° C 69% 1014.9 hPa 0 mm - 0 W/m² -
1787822011 26.67° C 69% 1015 hPa 0 mm - 0 W/m² -
1787821709 26.67° C 69% 1015.1 hPa 0 mm - 0 W/m² -
1787821405 26.67° C 69% 1015.1 hPa 0 mm - 0 W/m² -
1787821104 26.11° C 70% 1015 hPa 0 mm - 0 W/m² -
1787820799 26.11° C 69% 1015 hPa 0 mm - 0 W/m² -
1787820494 26.67° C 68% 1015 hPa 0 mm - 0 W/m² -
1787820190 27.78° C 66% 1015.2 hPa 0 mm - 0 W/m² -

* Rain latest hour (hover to see other rain measurements)
** Current wind speed in m/s (hover to see current wind gust speed)